Flag for Romania Weather past 2 weeks in Târgu Mureş, Romania

Now
57 °F

Clear.


Feels Like: 57 °F
Forecast: 45 / 74 °F
Wind: 2 mph from North

Location: Tirgu Mures Airport

Current Time: Sep 17, 2014 at 10:46:16 AM

Latest Report: Sep 17, 2014 at 10:00 AM


Visibility: 5 mi

Pressure: 30.18 "Hg

Humidity: 67%

Dew point: 46 °F

Location of Târgu MureşLocation

Historic Weather in Târgu Mureş — Graph

°F

Târgu Mureş temperature yesterday

Maximum temperature yesterday: 77 °F (at 4:00 PM)
Minimum temperature yesterday: 50 °F (at 7:00 AM)
Average temperature yesterday: 64 °F

Past Weeks' High & Low Weather Summary

 TemperatureHumidityPressure
High86 °F (Sep 2, 4:00 PM)100% (Sep 5, 8:00 AM)30.18 "Hg (Sep 5, 8:00 AM)
Low43 °F (Sep 17, 5:30 AM)23% (Sep 12, 4:00 PM)29.83 "Hg (Sep 2, 2:30 PM)
Average68 °F62%30.00 "Hg
* Reported Sep 2 9:00 AM — Sep 17 9:30 AM, Târgu Mureş, Weather by CustomWeather, © 2014

Note: Actual official high and low records may vary slightly from our data, if they occured in-between our weather recording intervals... More about our weather records

Advertising

Târgu Mureş weather history for previous 24 hours

 ConditionsComfort  
Time TempWeatherWind HumidityBarometerVisibility
9:30 AM
Sep 17
52 °FPassing clouds.5 mph82%30.18 "HgN/A
9:00 AM50 °FSunny.5 mph82%30.18 "Hg10 mi
8:30 AM46 °FSunny.2 mph87%30.18 "Hg10 mi
8:00 AM45 °FClear.2 mph93%30.18 "Hg10 mi
7:30 AM43 °FClear.2 mph93%30.18 "Hg10 mi
7:00 AM43 °FClear.2 mph93%30.18 "Hg10 mi
6:30 AM43 °FClear.5 mph93%30.15 "Hg10 mi
6:00 AM43 °FClear.2 mph93%30.15 "Hg10 mi
5:30 AM43 °FClear.2 mph93%30.15 "Hg10 mi
5:00 AM45 °FClear.2 mph93%30.15 "Hg10 mi
4:00 AM45 °FClear.7 mph93%30.15 "Hg10 mi
3:00 AM46 °FClear.2 mph87%30.15 "Hg10 mi
2:00 AM48 °FClear.2 mph82%30.15 "Hg10 mi
1:00 AM52 °FClear.No wind77%30.15 "Hg10 mi
12:00 AM55 °FClear.2 mph72%30.15 "Hg10 mi
11:00 PM
Sep 16
55 °FClear.5 mph72%30.12 "Hg10 mi
10:00 PM57 °FClear.7 mph67%30.12 "Hg10 mi
9:00 PM63 °FClear.5 mph59%30.09 "Hg10 mi
8:30 PM64 °FSunny.7 mph52%30.09 "Hg10 mi
8:00 PM63 °FScattered clouds.7 mph59%30.07 "HgN/A
7:30 PM66 °FPassing clouds.5 mph52%30.07 "HgN/A
7:00 PM70 °FPassing clouds.5 mph50%30.07 "HgN/A
6:30 PM73 °FScattered clouds.5 mph36%30.07 "HgN/A
6:00 PM73 °FScattered clouds.7 mph33%30.07 "HgN/A
5:30 PM75 °FScattered clouds.5 mph31%30.07 "HgN/A
5:00 PM75 °FScattered clouds.5 mph31%30.07 "HgN/A
4:30 PM75 °FScattered clouds.5 mph31%30.07 "HgN/A
4:00 PM77 °FScattered clouds.2 mph32%30.07 "HgN/A
3:30 PM75 °FScattered clouds.5 mph34%30.07 "HgN/A
3:00 PM75 °FScattered clouds.5 mph36%30.07 "HgN/A
2:30 PM73 °FPassing clouds.5 mph41%30.09 "HgN/A
2:00 PM75 °FPassing clouds.5 mph41%30.09 "HgN/A
1:30 PM73 °FPassing clouds.2 mph41%30.09 "HgN/A
1:00 PM72 °FPassing clouds.2 mph41%30.09 "HgN/A
12:30 PM70 °FPassing clouds.5 mph50%30.12 "HgN/A
12:00 PM68 °FPassing clouds.5 mph53%30.12 "HgN/A
11:30 AM68 °FSunny.2 mph56%30.12 "Hg10 mi
11:00 AM66 °FSunny.2 mph60%30.12 "Hg10 mi
10:30 AM63 °FSunny.2 mph68%30.12 "Hg10 mi
10:00 AM59 °FClear.5 mph77%30.12 "Hg6 mi
Weather by CustomWeather, © 2014

See weather overviewHow to use our weather pages